This demonstration page uses our WeatherBlox Daily Observations layout. Learn more.

Hourly Observations for June 29, 2017

Temp ( °F °C ) Dew Point ( °F °C ) Humidity (%) Winds ( mph kmh ) Pressure ( in mb ) Visibility ( mi km ) Precip ( " mm )
12:54 am 00:54 Clear 72 22.2 67 19.4 84 84 Calm 29.69 1006 10 16.0934 0 0
1:54 am 01:54 Clear 74 23.3 67 19.4 79 79 Calm 29.69 1005 10 16.0934 0 0
2:54 am 02:54 Clear 70 21.1 67 19.4 90 90 NE 3 6 29.7 1006 10 16.0934 0 0
3:54 am 03:54 Clear 72 22.2 68 20 87 87 E 3 6 29.69 1006 10 16.0934 0 0
4:54 am 04:54 Clear 73 22.8 66 18.9 79 79 SW 7 11 29.69 1005 10 16.0934 0 0
5:54 am 05:54 Clear 71 21.7 64 17.8 79 79 W 7 11 29.73 1007 10 16.0934 0 0
6:54 am 06:54 Sunny 70 21.1 64 17.8 82 82 W 8 13 29.76 1008 10 16.0934 0 0
7:54 am 07:54 Mostly Cloudy with Light Rain 68 20 62 16.7 81 81 WSW 14 22 29.8 1009 10 16.0934 0 0.0254
8:54 am 08:54 Partly Cloudy with Light Rain 66 18.9 62 16.7 87 87 ESE 9 15 29.71 1006 10 16.0934 0.01 0.254
9:54 am 09:54 Partly Cloudy 67 19.4 64 17.8 91 91 SSW 7 11 29.68 1005 10 16.0934 0 0.0254
10:54 am 10:54 Partly Cloudy 72 22.2 64 17.8 76 76 NW 9 15 29.74 1007 10 16.0934 0 0
11:02 am 11:02 Mostly Cloudy 72 22.2 64 17.8 76 76 WSW 6 9 29.71 1006 10 16.0934 0 0
11:12 am 11:12 Partly Cloudy 73 22.8 65 18.3 76 76 SSW 6 9 29.71 1006 10 16.0934 0 0
11:37 am 11:37 Mostly Cloudy 73 22.8 65 18.3 76 76 SSW 6 9 29.74 1007 10 16.0934 0 0
11:54 am 11:54 Mostly Cloudy 74 23.3 65 18.3 74 74 Calm 29.78 1008 10 16.0934 0 0
12:19 pm 12:19 Partly Cloudy 77 25 67 19.4 71 71 S 6 9 29.77 1008 10 16.0934 0 0
12:31 pm 12:31 Mostly Cloudy 77 25 67 19.4 71 71 SW 7 11 29.74 1007 10 16.0934 0 0
12:39 pm 12:39 Partly Cloudy 78 25.6 68 20 71 71 S 5 7 29.77 1008 10 16.0934 0 0
12:54 pm 12:54 Partly Cloudy 78 25.6 67 19.4 69 69 SW 3 6 29.78 1009 10 16.0934 0 0
1:25 pm 13:25 Mostly Cloudy 80 26.7 67 19.4 64 64 WSW 9 15 29.77 1008 10 16.0934 0 0
1:46 pm 13:46 Mostly Cloudy 81 27.2 67 19.4 62 62 VRB 3 6 29.77 1008 10 16.0934 0 0
1:54 pm 13:54 Partly Cloudy 82 27.8 68 20 63 63 WSW 6 9 29.78 1008 10 16.0934 0 0
2:54 pm 14:54 Mostly Cloudy 82 27.8 67 19.4 60 60 VRB 6 9 29.78 1008 10 16.0934 0 0
3:54 pm 15:54 Partly Cloudy 85 29.4 66 18.9 53 53 W 8 13 29.77 1008 10 16.0934 0 0
4:54 pm 16:54 Sunny 84 28.9 66 18.9 55 55 SSW 8 13 29.75 1007 10 16.0934 0 0
5:54 pm 17:54 Mostly Sunny 85 29.4 66 18.9 53 53 SW 9 15 29.73 1007 10 16.0934 0 0
6:54 pm 18:54 Mostly Sunny 85 29.4 65 18.3 51 51 SW 9 15 29.74 1007 10 16.0934 0 0
7:54 pm 19:54 Sunny 83 28.3 67 19.4 59 59 SSW 8 13 29.75 1007 10 16.0934 0 0
8:54 pm 20:54 Sunny 79 26.1 69 20.6 72 72 S 10 17 29.76 1008 10 16.0934 0 0
9:54 pm 21:54 Mostly Clear 77 25 68 20 74 74 Calm 29.8 1009 10 16.0934 0 0
10:16 pm 22:16 Mostly Cloudy 74 23.3 63 17.2 69 69 NE 14 22 29.8 1009 10 16.0934 0 0
10:52 pm 22:52 Mostly Cloudy with Nearby Thunderstorms 73 23 63 17 69 69 ENE 13 20 29.77 1008 10 16.0934 0 0
10:54 pm 22:54 Mostly Cloudy with Nearby Thunderstorms 73 22.8 62 16.7 69 69 ENE 13 20 29.81 1009 10 16.0934 0 0
11:03 pm 23:03 Mostly Cloudy with Thunderstorms 74 23.3 62 16.7 67 67 ESE 9 15 29.77 1008 10 16.0934 0 0
11:25 pm 23:25 Mostly Cloudy with Heavy Thunderstorms 69 20.6 65 18.3 87 87 N 9 15 29.88 1012 1.75 2.816345 0.19 4.826
11:37 pm 23:37 Cloudy with Light Thunderstorms 68 20 65 18.3 90 90 E 13 20 29.85 1011 3 4.82802 0.42 10.668
11:54 pm 23:54 Cloudy with Thunderstorms 70 21.1 66 18.9 87 87 SSE 8 13 29.85 1011 10 16.0934 0.42 10.668

Powered by AerisWeather